Regional Weather Roundup
Issued by NWS

Home | Current Version | Previous Version | Text Only | Print | Product List | Glossary Off
Versions: 1 2 3 4 5 6 7 8 9 10 11 12 13 14 15 16 17 18 19 20 21 22 23 24 25 26 27 28 29 30 31 32 33 34 35 36 37 38 39 40 41 42 43 44 45 46 47 48 49 50

000
ASUS45 KABQ 200310
RWRNM
NEW MEXICO REGIONAL WEATHER ROUNDUP
NATIONAL WEATHER SERVICE ALBUQUERQUE NM
800 PM MST FRI JAN 19 2018

NOTE: "FAIR" MEANS FEW OR NO CLOUDS BELOW 12,000 FEET AGL WITH NO
       SIGNIFICANT WEATHER OR OBSTRUCTIONS TO VISION.

      THIS PRODUCT IS RELEASED AS TWO VERSIONS.  ONE VERSION NEAR
      THE TOP OF THE HOUR CONTAINING PRELIMINARY DATA FROM ALBUQUERQUE
      AND OTHER STATIONS.  A FINAL VERSION WITH ADDITIONAL DATA IS
      ISSUED ABOUT 10 MINUTES AFTER THE HOUR.

NMZ501-503-504-510>518-200400-
NORTHWEST PLATEAU/NORTHCENTRAL MOUNTAINS

CITY           SKY/WX    TMP DP  RH WIND       PRES   REMARKS
FARMINGTON     FAIR      35  14  42 N8        29.95R WCI  29
LOS ALAMOS     MOCLDY    45  13  26 S8        30.03S
SANTA FE       FAIR      41  13  31 W5        30.00R
TAOS           FAIR      32  12  43 E6        30.04S WCI  26
ANGEL FIRE     FAIR      25  10  52 CALM      30.05F

$$
NMZ402-403-502-505>509-200400-
WESTCENTRAL MOUNTAINS/SOUTHWEST MOUNTAINS

CITY           SKY/WX    TMP DP  RH WIND       PRES   REMARKS
GALLUP         FAIR      42  14  32 W3        30.02R
GRANTS         FAIR      35   8  32 CALM      30.03R
SILVER CITY    FAIR      37  12  36 NW8       30.06R WCI  30

$$
NMZ407-409-411-412-200400-
SOUTHERN DESERTS

CITY           SKY/WX    TMP DP  RH WIND       PRES   REMARKS
DEMING         FAIR      47  14  26 W8        30.02R
LAS CRUCES     FAIR      48  15  27 CALM      30.02S
HOLLOMAN AFB   FAIR      38  10  31 E9        30.03S WCI  32
ALAMOGORDO     FAIR      39   9  28 E6        30.02S WCI  35
T OR C         FAIR      47  17  30 N6        29.99R

$$
NMZ519>523-200400-
CENTRAL VALLEYS/CENTRAL HIGHLANDS

CITY           SKY/WX    TMP DP  RH WIND       PRES   REMARKS
ALBUQUERQUE    FAIR      41  12  30 E6        30.00S
DOUBLE EAGLE   CLEAR     34  10  37 CALM      30.02R
MORIARTY ARPT  FAIR      37   9  31 S6        30.02S WCI  33
CLINES CORNERS FAIR      37   9  31 W13       30.03R WCI  29
BELEN          FAIR      41  11  29 SE3       30.00R
SOCORRO        FAIR      44  13  28 S9        29.99S

$$
NMZ524>526-539-540-200400-
SOUTHCENTRAL MOUNTAINS

CITY           SKY/WX    TMP DP  RH WIND       PRES   REMARKS
RUIDOSO        NOT AVBL

$$
NMZ527>531-200400-
NORTHEAST HIGHLANDS/NORTHEAST PLAINS

CITY           SKY/WX    TMP DP  RH WIND       PRES   REMARKS
LAS VEGAS      FAIR      42  13  30 NE3       29.97R
RATON          FAIR      46  12  25 E3        29.90R
CLAYTON        FAIR      46  13  26 W7        29.80R

$$
NMZ532>537-200400-
EASTCENTRAL PLAINS

CITY           SKY/WX    TMP DP  RH WIND       PRES   REMARKS
TUCUMCARI      FAIR      57  11  16 W10       29.79R
CANNON AFB     FAIR      52  11  19 W15       29.87R
CLOVIS AIRPORT FAIR      47  11  23 W15       29.85S

$$
NMZ028-029-538-200400-
SOUTHEAST PLAINS

CITY           SKY/WX    TMP DP  RH WIND       PRES   REMARKS
ROSWELL        FAIR      55   7  14 NW9       29.87R
ARTESIA        FAIR      54  14  20 W16       29.89S
CARLSBAD       FAIR      50  11  20 SW12      29.89S
HOBBS          FAIR      41   9  26 SW6       29.91R


$$




USA.gov is the U.S. government's official web portal to all federal, state and local government web resources and services.